SCP
0 0 0 0 0 0 0 0 0 0 -0 -0 -0 -0 -0 -0 -0 -0 -0 -0 -0 -0 -0 -0 -0 -0 -0 0 0 0 0 0 0 0 0 -0 0 0 -0 -0 -0 -0 0 0 0 0 0
-0 0 0 0 0 0 0 -0 -0 -0 -0 -0 -0 -0 -0 -0 -0 -0 -0 -0 -0 0 -0 -0 0 0 0 0 0 0 0 0 0 -0 0 0 -0 -0 -0 0 -0 0 -0 0 0 0 0
-0 -0 -0 0 0 0 0 0 -0 -0 -0 -0 -0 -0 -0 -0 -0 0 0 0 0 -0 -0 -0 0 -0 -0 0 0 0 0 0 0 -0 -0 -0 -0 0 0 0 0 0 0 -0 -0 -0 0
0 0 0 0 0 0 0 0 0 0 0 0 0 0 0 0 0 0 0 0 0 0 0 0 -0 -0 0 0 0 0 0 0 0 -0 -0 -0 -0 0 0 0 0 0 0 0 0 -0 -0
-0 0 0 0 0 0 0 0 0 0 0 0 0 0 0 0 0 0 0 -0 -0 -0 -0 -0 -0 -0 0 0 0 0 0 0 0 0 0 0 0 0 0 0 0 0 0 0 0 -0 -0
-0 0 0 -0 -0 -0 0 0 0 0 0 0 0 0 0 0 0 0 0 -0 -0 -0 -0 -0 -0 -0 0 0 0 0 0 0 0 0 0 0 0 0 0 0 0 0 0 0 0 0 0
0 0 0 0 -0 -0 0 0 0 0 0 0 0 0 0 0 0 0 0 0 0 -0 -0 0 0 0 0 0 0 0 0 0 0 0 0 0 0 0 0 0 0 0 0 0 0 0 0
0 0 0 0 0 0 0 0 0 0 0 0 0 0 0 0 0 -0 0 0 0 0 0 0 0 0 0 0 0 0 -0 -0 0 0 0 0 0 0 0 0 0 0 0 0 0 0 0
0 0 0 0 0 0 0 0 0 0 0 0 0 0 0 0 0 -0 0 0 -0 -0 -0 0 0 0 0 0 0 0 0 0 0 0 0 0 0 0 0 0 0 0 0 0 0 0 0
0 0 0 0 0 0 0 0 0 0 0 0 0 0 0 0 -0 0 0 0 -0 -0 0 0 0 0 0 0 0 0 0 0 0 0 0 0 0 0 0 0 0 0 0 0 0 0 0
0 0 0 0 0 0 0 0 0 0 0 0 0 0 0 -0 0 0 0 0 0 -0 0 0 0 0 0 0 0 0 0 0 0 0 0 0 0 0 0 0 0 0 0 0 0 0 0
0 0 0 0 0 0 0 0 0 0 0 0 0 0 0 -0 -0 0 0 0 -0 0 0 0 0 0 -0 0 0 0 0 0 0 0 0 0 0 0 0 0 0 0 0 0 0 0 0
0 0 0 0 0 0 0 0 0 0 0 0 0 0 -0 0 0 0 0 -0 0 0 0 0 0 0 0 0 0 0 0 0 0 0 0 0 0 0 0 0 0 0 0 0 0 0 0
0 0 0 0 0 0 0 -0 0 0 0 -0 -0 -0 0 0 0 0 -0 -0 0 0 0 0 0 0 0 0 0 0 0 0 0 0 0 0 0 0 0 0 0 0 0 0 0 0 0
0 0 0 0 0 0 -0 -0 0 0 -0 -0 -0 0 0 0 0 -0 -0 -0 0 0 0 0 0 0 0 0 0 0 0 0 0 0 0 0 0 0 0 0 0 0 0 0 0 0 0
0 0 0 0 0 -0 -0 -0 0 0 -0 -0 -0 0 0 0 0 -0 -0 0 0 0 0 0 0 0 0 0 0 0 0 0 0 0 0 0 0 0 0 0 0 0 0 0 0 0 0
0 0 0 0 0 0 0 0 0 -0 -0 -0 -0 -0 0 -0 -0 -0 -0 0 0 0 0 0 0 0 0 0 0 0 0 0 0 0 0 0 0 0 0 0 0 0 0 0 0 0 0
0 0 0 0 0 0 0 -0 0 0 -0 0 -0 0 0 -0 0 0 0 0 0 0 0 0 0 0 0 0 0 0 0 0 0 0 0 0 0 0 0 0 -0 0 0 0 0 0 0
0 0 0 0 0 0 0 -0 -0 -0 0 0 -0 0 0 -0 0 0 0 0 0 0 0 0 0 0 0 0 0 0 0 0 0 0 0 0 0 0 0 0 0 0 0 0 0 0 0
0 0 0 0 0 0 0 0 -0 -0 -0 0 0 0 0 0 0 0 0 0 0 0 0 -0 -0 0 0 -0 0 0 0 0 0 0 0 0 0 0 0 0 0 0 0 0 0 0 0
0 0 0 0 0 0 0 0 0 -0 0 0 0 0 0 0 0 0 -0 -0 -0 -0 0 0 0 0 0 0 0 0 0 0 0 0 0 0 0 0 0 0 0 0 0 0 0 0 0
0 0 0 0 0 0 0 0 0 -0 -0 0 0 0 0 0 0 -0 -0 -0 -0 0 0 0 0 0 0 0 0 -0 0 0 0 0 -0 0 0 0 0 0 0 0 0 0 0 0 0
0 0 0 0 0 0 0 0 0 -0 0 0 0 0 -0 0 -0 0 0 0 0 0 0 0 0 0 0 0 0 -0 -0 -0 0 0 0 0 0 0 0 0 0 0 0 0 0 0 0
0 0 0 0 0 0 0 0 0 0 0 -0 -0 -0 -0 0 0 0 0 0 0 0 0 0 0 0 0 -0 -0 0 -0 0 0 -0 0 0 0 0 0 0 0 0 0 0 0 0 0
0 0 0 0 0 0 -0 0 -0 -0 -0 -0 -0 -0 -0 -0 0 0 0 0 0 0 0 0 0 0 0 0 0 0 0 -0 -0 -0 -0 0 0 0 0 0 0 0 0 0 0 0 0
0 0 0 0 0 -0 -0 -0 -0 -0 -0 -0 -0 -0 -0 -0 0 0 0 0 0 0 0 0 0 0 0 0 0 0 0 0 0 0 0 0 0 0 0 0 0 0 0 0 0 0 0
0 0 0 0 -0 -0 -0 -0 -0 -0 -0 -0 -0 -0 -0 -0 0 -0 -0 0 0 0 0 0 0 0 0 0 0 0 0 0 0 0 0 -0 -0 0 0 0 0 0 0 0 0 0 0
0 0 0 0 -0 -0 -0 -0 -0 -0 0 0 0 0 -0 -0 0 -0 0 0 0 0 0 0 0 0 0 0 0 0 0 0 0 0 -0 0 -0 0 -0 0 0 0 0 0 0 0 0
0 0 0 0 -0 -0 -0 -0 0 0 0 0 0 0 0 0 0 0 0 0 0 0 0 0 0 0 0 0 0 0 0 0 0 0 0 -0 0 -0 -0 -0 -0 0 0 0 0 -0 0
Wind_Speed_500mb
31 31 32 33 35 38 41 42 43 43 42 41 42 43 43 44 42 39 35 33 33 32 26 24 15 15 8 12 6 11 10 19 27 53 44 53 48 46 37 34 37 39 37 17 26 11 17
33 34 35 37 39 42 44 45 46 47 46 45 43 44 45 46 45 40 37 33 29 28 26 17 14 14 2 22 3 9 5 11 34 54 47 51 44 44 36 36 32 25 43 33 25 24 22
34 36 37 39 41 43 46 47 47 48 48 49 47 46 46 47 47 42 37 34 27 18 14 15 9 13 10 7 3 8 1 9 27 46 45 47 37 39 26 26 35 36 22 32 38 32 19
37 38 38 39 41 43 45 47 49 51 51 51 50 48 46 44 43 38 35 33 17 15 6 4 12 3 3 4 4 1 6 16 24 36 36 38 40 32 45 23 13 36 36 35 40 41 36
39 41 43 45 45 46 46 47 46 48 49 51 50 48 45 42 36 29 33 28 13 7 3 2 2 6 16 8 3 4 10 14 28 30 31 32 31 38 46 29 25 28 32 45 38 47 36
45 45 45 46 47 48 49 51 49 49 49 49 49 48 44 37 30 23 26 20 13 8 6 3 8 14 7 5 4 3 10 17 32 29 26 31 28 33 34 31 32 37 37 41 44 34 38
48 47 46 46 47 47 45 45 45 46 48 52 51 46 42 32 18 21 25 17 7 6 20 12 8 6 7 2 3 2 12 25 24 36 33 44 29 39 46 43 42 37 33 41 36 39 32
50 50 50 50 49 48 47 47 46 45 50 52 51 45 37 26 12 15 22 10 9 10 14 8 7 6 2 5 11 9 15 25 26 32 38 29 43 41 39 36 41 43 29 30 37 28 32
52 49 48 50 50 47 47 49 50 50 51 53 51 43 33 20 6 10 6 10 12 10 16 21 12 8 6 9 5 6 10 25 23 36 41 44 22 41 42 40 39 40 40 33 30 25 23
52 49 44 47 51 48 47 46 50 53 55 53 48 39 27 7 0 6 1 18 15 8 12 24 20 10 12 9 17 6 5 14 21 30 37 41 44 22 44 46 41 39 35 38 37 34 29
54 50 47 49 48 47 47 49 51 56 54 50 44 35 19 3 5 6 14 19 7 6 11 14 17 5 7 15 8 19 6 15 27 26 21 31 36 47 40 42 42 37 32 39 39 34 33
51 51 49 47 45 47 49 53 56 54 49 46 40 32 7 9 3 8 16 16 4 14 7 14 5 9 18 11 11 2 11 13 15 20 27 34 38 33 46 38 32 36 36 37 31 32 35
52 48 42 40 44 46 51 55 56 53 46 41 40 22 3 9 6 16 16 10 13 15 5 15 5 8 8 6 12 10 13 24 21 22 33 37 40 38 27 34 46 34 41 28 29 32 37
48 39 38 40 43 47 51 53 51 46 46 43 37 10 14 3 13 13 12 17 14 7 9 11 4 5 15 1 23 12 22 24 22 30 29 27 33 44 38 44 41 53 43 29 52 32 39
40 38 40 43 48 51 52 51 46 44 45 41 19 9 6 14 14 10 18 19 9 21 13 12 14 21 24 19 12 8 29 29 6 4 27 23 45 3 11 37 45 44 51 51 53 46 41
36 39 43 47 51 51 51 48 45 45 45 41 7 6 8 22 9 7 18 18 9 16 16 17 22 11 22 10 16 21 22 6 10 10 19 17 26 23 19 18 33 43 34 47 38 51 51
36 40 46 49 50 51 48 44 46 47 43 20 7 13 11 19 2 20 14 14 7 12 16 15 19 25 20 23 25 24 26 3 10 8 19 29 17 34 21 24 40 35 41 31 36 47 38
39 44 47 50 51 49 45 43 44 48 45 18 6 5 24 11 19 7 11 9 4 11 5 12 12 16 22 28 30 33 32 25 13 16 20 19 21 29 37 32 45 52 39 54 30 42 43
43 47 50 50 51 46 44 43 42 42 41 17 10 9 24 12 6 10 7 5 6 11 10 12 14 16 28 26 23 24 32 36 6 20 10 22 19 26 31 28 32 28 35 35 40 45 44
47 50 50 48 44 43 44 44 41 36 29 12 13 3 11 28 17 10 1 10 6 10 12 18 17 15 17 22 23 14 27 17 17 31 7 7 26 33 28 15 21 35 47 26 39 34 47
51 53 48 44 42 43 44 42 36 27 22 14 13 11 10 10 18 18 21 11 11 18 19 12 9 8 9 12 21 25 29 30 28 19 18 21 34 36 38 32 29 31 17 26 39 40 34
52 50 45 42 44 45 43 38 31 20 19 16 14 4 13 18 11 22 18 14 15 13 8 2 7 14 10 11 22 29 26 16 27 26 30 26 29 32 36 42 29 33 33 34 36 39 40
50 47 42 41 44 43 38 32 24 21 27 13 14 11 5 10 12 4 6 7 9 17 7 7 9 16 18 11 22 33 36 32 27 24 21 23 20 25 34 35 38 41 44 42 42 42 41
47 43 41 43 44 37 29 24 23 26 33 17 11 10 5 14 8 7 5 8 14 9 13 18 15 17 20 32 43 44 53 55 38 35 36 16 21 20 18 25 32 27 32 37 31 35 49
44 40 40 42 39 28 22 18 23 25 30 20 12 10 9 8 11 8 8 16 13 14 16 8 10 13 26 33 20 21 22 28 39 42 37 35 25 11 15 27 30 38 20 9 11 25 38
42 37 39 38 29 23 15 16 22 23 26 21 13 15 6 7 22 9 9 6 9 14 13 4 12 13 20 11 8 14 7 10 2 10 33 41 36 18 23 29 38 34 24 6 12 29 36
39 35 36 32 21 19 12 17 24 23 19 27 7 15 8 12 21 20 17 11 11 4 9 14 18 6 14 4 6 5 7 5 6 9 11 10 16 32 31 28 24 32 20 8 19 10 56
35 33 32 26 17 15 9 14 18 20 19 22 2 10 8 9 17 14 10 10 10 3 6 20 6 6 4 5 7 8 6 6 7 8 16 11 13 21 29 38 39 13 10 18 13 23 47
30 32 28 20 14 10 9 12 13 9 4 8 9 9 8 5 9 7 9 8 7 3 4 8 6 2 6 2 3 5 5 6 10 4 12 8 9 9 10 12 17 17 26 37 30 28 61
Wind_Direction_500mb
30 25 21 16 11 7 3 359 355 353 352 352 350 351 347 343 341 338 333 326 322 320 308 308 306 309 314 225 211 323 283 227 193 183 193 196 201 204 218 227 227 226 259 221 232 177 286
17 13 9 5 1 358 356 355 352 349 346 345 345 346 344 341 339 337 334 329 323 315 310 308 310 293 223 245 303 326 330 195 200 190 196 198 206 207 230 242 231 230 236 252 234 226 184
7 3 1 358 355 353 351 350 348 345 344 342 342 341 340 338 336 334 335 333 326 322 310 310 315 136 241 22 298 294 163 175 183 184 199 201 207 211 231 256 236 253 247 236 240 219 198
1 358 354 352 350 349 348 347 346 343 342 341 342 341 337 334 332 330 334 335 323 349 15 37 140 91 20 326 271 302 186 185 190 191 204 203 210 236 230 248 248 231 242 247 211 221 222
356 353 351 350 348 346 345 343 344 341 340 340 342 341 337 332 329 333 339 339 329 7 81 125 41 253 130 17 45 203 184 188 177 189 208 206 221 230 222 239 233 209 228 224 235 202 221
357 354 351 349 347 345 344 343 345 343 340 339 341 340 338 334 331 344 354 13 31 348 51 23 256 243 165 124 46 189 194 176 180 180 193 204 212 229 222 212 224 210 217 237 219 202 211
355 351 348 346 343 342 342 341 342 341 338 337 339 338 338 335 334 3 14 331 287 215 232 308 18 311 99 184 40 133 174 172 184 194 205 198 214 215 214 223 238 262 226 233 234 215 205
350 349 348 346 343 342 342 342 341 341 338 335 336 336 336 333 332 33 27 23 9 325 293 216 216 214 144 185 189 96 179 205 204 204 208 200 226 228 229 225 233 252 256 252 241 214 212
341 343 343 340 339 340 342 342 339 340 338 333 334 334 335 327 318 19 21 9 326 296 254 168 200 216 189 239 254 99 251 223 221 214 212 230 222 219 236 230 237 229 240 239 251 225 247
340 336 333 333 335 339 340 340 338 339 337 333 335 334 336 335 86 326 190 344 329 231 268 141 200 168 208 226 206 196 253 264 230 242 231 229 244 243 217 232 228 235 220 255 253 249 223
340 337 333 333 336 338 339 338 339 340 337 335 334 335 335 288 255 315 313 332 315 233 268 147 127 113 193 233 68 155 230 241 255 228 254 232 229 240 226 234 229 241 240 222 245 249 248
337 340 335 336 340 340 340 339 339 341 338 338 335 337 10 10 341 319 328 318 288 233 222 125 122 166 209 191 185 321 225 230 304 284 262 262 262 237 241 229 236 236 242 250 235 234 239
340 339 340 342 342 344 342 339 341 342 341 344 339 348 49 116 282 317 318 287 239 252 164 127 176 232 263 197 193 252 235 214 231 222 231 232 237 250 243 250 222 216 224 223 225 220 233
338 344 347 344 343 345 342 341 345 347 345 345 341 21 11 333 321 307 299 250 257 30 60 62 288 235 266 237 252 225 253 248 208 270 277 278 226 214 214 230 233 212 224 224 218 216 227
341 348 348 348 346 344 343 346 349 350 345 342 355 24 28 325 309 285 251 231 336 19 14 346 299 246 254 183 256 217 257 271 308 228 270 256 240 230 267 213 238 231 216 242 256 238 237
351 351 349 348 346 343 347 351 350 350 346 340 9 212 8 343 305 232 241 272 54 19 351 298 281 303 290 225 194 227 253 129 264 247 281 285 275 261 200 234 268 260 258 221 236 248 253
355 353 349 347 345 343 352 355 351 348 351 357 61 235 340 342 289 239 272 54 29 13 349 320 316 304 283 278 287 265 285 103 242 236 268 279 250 256 206 203 231 224 246 255 247 231 245
357 351 346 345 344 346 353 355 353 351 355 19 277 259 347 341 244 331 14 17 18 1 314 309 288 283 284 295 292 288 272 268 37 283 254 244 268 247 241 221 226 244 246 232 239 228 234
353 347 345 347 346 349 353 354 354 357 355 8 328 39 15 326 320 73 121 101 24 351 344 341 318 351 326 317 313 278 265 268 267 252 256 276 230 249 250 259 252 243 237 255 255 246 232
350 347 347 348 349 350 351 352 354 359 5 38 300 207 96 46 49 29 197 48 55 71 55 349 304 292 306 273 257 250 282 313 288 255 346 278 264 268 259 329 331 233 237 245 264 239 239
348 346 346 349 352 351 348 351 354 9 44 12 355 59 3 25 49 41 11 339 34 24 18 350 130 25 3 291 314 274 266 271 249 242 246 243 253 260 266 276 282 292 272 232 254 261 268
348 345 347 350 351 348 348 350 1 39 58 33 354 44 97 79 47 52 20 40 353 334 304 26 323 329 319 276 273 300 297 227 257 304 232 230 261 274 266 273 246 254 246 250 253 254 266
347 345 347 349 350 348 350 353 23 70 56 46 53 74 354 100 56 82 48 344 307 307 286 297 305 310 290 319 324 284 282 279 257 243 241 284 259 261 255 250 246 241 239 240 244 247 251
346 346 346 349 350 351 2 8 60 72 76 66 75 79 71 82 64 46 15 351 337 324 275 312 281 269 280 301 299 281 267 260 241 259 252 226 259 253 264 254 253 256 243 240 261 273 238
345 344 346 350 354 4 24 44 72 84 87 68 45 66 54 65 66 110 342 2 350 332 249 271 311 330 318 298 293 264 241 230 239 242 227 235 217 261 245 253 248 255 250 16 359 273 291
344 344 346 351 3 14 47 81 89 90 89 82 57 75 68 16 44 31 356 347 357 338 309 109 355 328 339 344 286 281 329 349 270 257 245 234 216 206 255 243 249 249 87 70 296 265 269
342 344 346 352 8 25 72 95 94 94 94 89 61 76 15 11 46 29 35 14 354 320 279 310 327 41 18 325 285 308 343 349 281 284 272 227 253 223 230 251 256 276 90 321 254 277 336
339 343 346 354 7 35 87 139 114 106 99 80 338 48 53 14 53 33 42 4 348 46 290 350 286 61 316 318 328 8 315 337 295 273 299 258 220 223 236 246 245 348 277 251 324 307 323
336 341 344 352 4 43 127 164 173 153 118 48 316 320 323 266 27 7 25 28 12 2 296 322 6 331 57 358 352 306 315 304 303 344 311 287 353 290 274 254 357 308 293 293 287 279 280
Wind_Speed_850mb
31 31 32 33 35 38 41 42 43 43 42 41 42 43 43 44 42 39 35 33 33 32 26 24 15 15 8 12 6 11 10 19 27 53 44 53 48 46 37 34 37 39 37 17 26 11 17
33 34 35 37 39 42 44 45 46 47 46 45 43 44 45 46 45 40 37 33 29 28 26 17 14 14 2 22 3 9 5 11 34 54 47 51 44 44 36 36 32 25 43 33 25 24 22
34 36 37 39 41 43 46 47 47 48 48 49 47 46 46 47 47 42 37 34 27 18 14 15 9 13 10 7 3 8 1 9 27 46 45 47 37 39 26 26 35 36 22 32 38 32 19
37 38 38 39 41 43 45 47 49 51 51 51 50 48 46 44 43 38 35 33 17 15 6 4 12 3 3 4 4 1 6 16 24 36 36 38 40 32 45 23 13 36 36 35 40 41 36
39 41 43 45 45 46 46 47 46 48 49 51 50 48 45 42 36 29 33 28 13 7 3 2 2 6 16 8 3 4 10 14 28 30 31 32 31 38 46 29 25 28 32 45 38 47 36
45 45 45 46 47 48 49 51 49 49 49 49 49 48 44 37 30 23 26 20 13 8 6 3 8 14 7 5 4 3 10 17 32 29 26 31 28 33 34 31 32 37 37 41 44 34 38
48 47 46 46 47 47 45 45 45 46 48 52 51 46 42 32 18 21 25 17 7 6 20 12 8 6 7 2 3 2 12 25 24 36 33 44 29 39 46 43 42 37 33 41 36 39 32
50 50 50 50 49 48 47 47 46 45 50 52 51 45 37 26 12 15 22 10 9 10 14 8 7 6 2 5 11 9 15 25 26 32 38 29 43 41 39 36 41 43 29 30 37 28 32
52 49 48 50 50 47 47 49 50 50 51 53 51 43 33 20 6 10 6 10 12 10 16 21 12 8 6 9 5 6 10 25 23 36 41 44 22 41 42 40 39 40 40 33 30 25 23
52 49 44 47 51 48 47 46 50 53 55 53 48 39 27 7 0 6 1 18 15 8 12 24 20 10 12 9 17 6 5 14 21 30 37 41 44 22 44 46 41 39 35 38 37 34 29
54 50 47 49 48 47 47 49 51 56 54 50 44 35 19 3 5 6 14 19 7 6 11 14 17 5 7 15 8 19 6 15 27 26 21 31 36 47 40 42 42 37 32 39 39 34 33
51 51 49 47 45 47 49 53 56 54 49 46 40 32 7 9 3 8 16 16 4 14 7 14 5 9 18 11 11 2 11 13 15 20 27 34 38 33 46 38 32 36 36 37 31 32 35
52 48 42 40 44 46 51 55 56 53 46 41 40 22 3 9 6 16 16 10 13 15 5 15 5 8 8 6 12 10 13 24 21 22 33 37 40 38 27 34 46 34 41 28 29 32 37
48 39 38 40 43 47 51 53 51 46 46 43 37 10 14 3 13 13 12 17 14 7 9 11 4 5 15 1 23 12 22 24 22 30 29 27 33 44 38 44 41 53 43 29 52 32 39
40 38 40 43 48 51 52 51 46 44 45 41 19 9 6 14 14 10 18 19 9 21 13 12 14 21 24 19 12 8 29 29 6 4 27 23 45 3 11 37 45 44 51 51 53 46 41
36 39 43 47 51 51 51 48 45 45 45 41 7 6 8 22 9 7 18 18 9 16 16 17 22 11 22 10 16 21 22 6 10 10 19 17 26 23 19 18 33 43 34 47 38 51 51
36 40 46 49 50 51 48 44 46 47 43 20 7 13 11 19 2 20 14 14 7 12 16 15 19 25 20 23 25 24 26 3 10 8 19 29 17 34 21 24 40 35 41 31 36 47 38
39 44 47 50 51 49 45 43 44 48 45 18 6 5 24 11 19 7 11 9 4 11 5 12 12 16 22 28 30 33 32 25 13 16 20 19 21 29 37 32 45 52 39 54 30 42 43
43 47 50 50 51 46 44 43 42 42 41 17 10 9 24 12 6 10 7 5 6 11 10 12 14 16 28 26 23 24 32 36 6 20 10 22 19 26 31 28 32 28 35 35 40 45 44
47 50 50 48 44 43 44 44 41 36 29 12 13 3 11 28 17 10 1 10 6 10 12 18 17 15 17 22 23 14 27 17 17 31 7 7 26 33 28 15 21 35 47 26 39 34 47
51 53 48 44 42 43 44 42 36 27 22 14 13 11 10 10 18 18 21 11 11 18 19 12 9 8 9 12 21 25 29 30 28 19 18 21 34 36 38 32 29 31 17 26 39 40 34
52 50 45 42 44 45 43 38 31 20 19 16 14 4 13 18 11 22 18 14 15 13 8 2 7 14 10 11 22 29 26 16 27 26 30 26 29 32 36 42 29 33 33 34 36 39 40
50 47 42 41 44 43 38 32 24 21 27 13 14 11 5 10 12 4 6 7 9 17 7 7 9 16 18 11 22 33 36 32 27 24 21 23 20 25 34 35 38 41 44 42 42 42 41
47 43 41 43 44 37 29 24 23 26 33 17 11 10 5 14 8 7 5 8 14 9 13 18 15 17 20 32 43 44 53 55 38 35 36 16 21 20 18 25 32 27 32 37 31 35 49
44 40 40 42 39 28 22 18 23 25 30 20 12 10 9 8 11 8 8 16 13 14 16 8 10 13 26 33 20 21 22 28 39 42 37 35 25 11 15 27 30 38 20 9 11 25 38
42 37 39 38 29 23 15 16 22 23 26 21 13 15 6 7 22 9 9 6 9 14 13 4 12 13 20 11 8 14 7 10 2 10 33 41 36 18 23 29 38 34 24 6 12 29 36
39 35 36 32 21 19 12 17 24 23 19 27 7 15 8 12 21 20 17 11 11 4 9 14 18 6 14 4 6 5 7 5 6 9 11 10 16 32 31 28 24 32 20 8 19 10 56
35 33 32 26 17 15 9 14 18 20 19 22 2 10 8 9 17 14 10 10 10 3 6 20 6 6 4 5 7 8 6 6 7 8 16 11 13 21 29 38 39 13 10 18 13 23 47
30 32 28 20 14 10 9 12 13 9 4 8 9 9 8 5 9 7 9 8 7 3 4 8 6 2 6 2 3 5 5 6 10 4 12 8 9 9 10 12 17 17 26 37 30 28 61
Wind_Direction_850mb
30 25 21 16 11 7 3 359 355 353 352 352 350 351 347 343 341 338 333 326 322 320 308 308 306 309 314 225 211 323 283 227 193 183 193 196 201 204 218 227 227 226 259 221 232 177 286
17 13 9 5 1 358 356 355 352 349 346 345 345 346 344 341 339 337 334 329 323 315 310 308 310 293 223 245 303 326 330 195 200 190 196 198 206 207 230 242 231 230 236 252 234 226 184
7 3 1 358 355 353 351 350 348 345 344 342 342 341 340 338 336 334 335 333 326 322 310 310 315 136 241 22 298 294 163 175 183 184 199 201 207 211 231 256 236 253 247 236 240 219 198
1 358 354 352 350 349 348 347 346 343 342 341 342 341 337 334 332 330 334 335 323 349 15 37 140 91 20 326 271 302 186 185 190 191 204 203 210 236 230 248 248 231 242 247 211 221 222
356 353 351 350 348 346 345 343 344 341 340 340 342 341 337 332 329 333 339 339 329 7 81 125 41 253 130 17 45 203 184 188 177 189 208 206 221 230 222 239 233 209 228 224 235 202 221
357 354 351 349 347 345 344 343 345 343 340 339 341 340 338 334 331 344 354 13 31 348 51 23 256 243 165 124 46 189 194 176 180 180 193 204 212 229 222 212 224 210 217 237 219 202 211
355 351 348 346 343 342 342 341 342 341 338 337 339 338 338 335 334 3 14 331 287 215 232 308 18 311 99 184 40 133 174 172 184 194 205 198 214 215 214 223 238 262 226 233 234 215 205
350 349 348 346 343 342 342 342 341 341 338 335 336 336 336 333 332 33 27 23 9 325 293 216 216 214 144 185 189 96 179 205 204 204 208 200 226 228 229 225 233 252 256 252 241 214 212
341 343 343 340 339 340 342 342 339 340 338 333 334 334 335 327 318 19 21 9 326 296 254 168 200 216 189 239 254 99 251 223 221 214 212 230 222 219 236 230 237 229 240 239 251 225 247
340 336 333 333 335 339 340 340 338 339 337 333 335 334 336 335 86 326 190 344 329 231 268 141 200 168 208 226 206 196 253 264 230 242 231 229 244 243 217 232 228 235 220 255 253 249 223
340 337 333 333 336 338 339 338 339 340 337 335 334 335 335 288 255 315 313 332 315 233 268 147 127 113 193 233 68 155 230 241 255 228 254 232 229 240 226 234 229 241 240 222 245 249 248
337 340 335 336 340 340 340 339 339 341 338 338 335 337 10 10 341 319 328 318 288 233 222 125 122 166 209 191 185 321 225 230 304 284 262 262 262 237 241 229 236 236 242 250 235 234 239
340 339 340 342 342 344 342 339 341 342 341 344 339 348 49 116 282 317 318 287 239 252 164 127 176 232 263 197 193 252 235 214 231 222 231 232 237 250 243 250 222 216 224 223 225 220 233
338 344 347 344 343 345 342 341 345 347 345 345 341 21 11 333 321 307 299 250 257 30 60 62 288 235 266 237 252 225 253 248 208 270 277 278 226 214 214 230 233 212 224 224 218 216 227
341 348 348 348 346 344 343 346 349 350 345 342 355 24 28 325 309 285 251 231 336 19 14 346 299 246 254 183 256 217 257 271 308 228 270 256 240 230 267 213 238 231 216 242 256 238 237
351 351 349 348 346 343 347 351 350 350 346 340 9 212 8 343 305 232 241 272 54 19 351 298 281 303 290 225 194 227 253 129 264 247 281 285 275 261 200 234 268 260 258 221 236 248 253
355 353 349 347 345 343 352 355 351 348 351 357 61 235 340 342 289 239 272 54 29 13 349 320 316 304 283 278 287 265 285 103 242 236 268 279 250 256 206 203 231 224 246 255 247 231 245
357 351 346 345 344 346 353 355 353 351 355 19 277 259 347 341 244 331 14 17 18 1 314 309 288 283 284 295 292 288 272 268 37 283 254 244 268 247 241 221 226 244 246 232 239 228 234
353 347 345 347 346 349 353 354 354 357 355 8 328 39 15 326 320 73 121 101 24 351 344 341 318 351 326 317 313 278 265 268 267 252 256 276 230 249 250 259 252 243 237 255 255 246 232
350 347 347 348 349 350 351 352 354 359 5 38 300 207 96 46 49 29 197 48 55 71 55 349 304 292 306 273 257 250 282 313 288 255 346 278 264 268 259 329 331 233 237 245 264 239 239
348 346 346 349 352 351 348 351 354 9 44 12 355 59 3 25 49 41 11 339 34 24 18 350 130 25 3 291 314 274 266 271 249 242 246 243 253 260 266 276 282 292 272 232 254 261 268
348 345 347 350 351 348 348 350 1 39 58 33 354 44 97 79 47 52 20 40 353 334 304 26 323 329 319 276 273 300 297 227 257 304 232 230 261 274 266 273 246 254 246 250 253 254 266
347 345 347 349 350 348 350 353 23 70 56 46 53 74 354 100 56 82 48 344 307 307 286 297 305 310 290 319 324 284 282 279 257 243 241 284 259 261 255 250 246 241 239 240 244 247 251
346 346 346 349 350 351 2 8 60 72 76 66 75 79 71 82 64 46 15 351 337 324 275 312 281 269 280 301 299 281 267 260 241 259 252 226 259 253 264 254 253 256 243 240 261 273 238
345 344 346 350 354 4 24 44 72 84 87 68 45 66 54 65 66 110 342 2 350 332 249 271 311 330 318 298 293 264 241 230 239 242 227 235 217 261 245 253 248 255 250 16 359 273 291
344 344 346 351 3 14 47 81 89 90 89 82 57 75 68 16 44 31 356 347 357 338 309 109 355 328 339 344 286 281 329 349 270 257 245 234 216 206 255 243 249 249 87 70 296 265 269
342 344 346 352 8 25 72 95 94 94 94 89 61 76 15 11 46 29 35 14 354 320 279 310 327 41 18 325 285 308 343 349 281 284 272 227 253 223 230 251 256 276 90 321 254 277 336
339 343 346 354 7 35 87 139 114 106 99 80 338 48 53 14 53 33 42 4 348 46 290 350 286 61 316 318 328 8 315 337 295 273 299 258 220 223 236 246 245 348 277 251 324 307 323
336 341 344 352 4 43 127 164 173 153 118 48 316 320 323 266 27 7 25 28 12 2 296 322 6 331 57 358 352 306 315 304 303 344 311 287 353 290 274 254 357 308 293 293 287 279 280